TimePST,TemperatureF,Dew PointF,Humidity,Sea Level PressureIn,VisibilityMPH,Wind Direction,Wind SpeedMPH,Gust SpeedMPH,PrecipitationIn,Events,Conditions,WindDirDegrees,DateUTC
12:52 AM,36.0,24.1,62,30.09,10.0,Calm,Calm,-,N/A,,Clear,0,2013-12-11 08:52:00
1:52 AM,39.9,21.9,49,30.09,10.0,NE,4.6,-,N/A,,Clear,40,2013-12-11 09:52:00
2:52 AM,39.9,23.0,51,30.09,10.0,Calm,Calm,-,N/A,,Clear,0,2013-12-11 10:52:00
3:52 AM,41.0,23.0,49,30.09,10.0,Calm,Calm,-,N/A,,Clear,0,2013-12-11 11:52:00
4:52 AM,37.9,24.1,57,30.10,10.0,Calm,Calm,-,N/A,,Clear,0,2013-12-11 12:52:00
5:52 AM,39.0,26.1,60,30.11,10.0,Calm,Calm,-,N/A,,Clear,0,2013-12-11 13:52:00
6:52 AM,41.0,26.1,55,30.12,10.0,Calm,Calm,-,N/A,,Clear,0,2013-12-11 14:52:00
7:52 AM,46.9,28.9,50,30.14,10.0,Calm,Calm,-,N/A,,Clear,0,2013-12-11 15:52:00
8:52 AM,55.0,26.1,33,30.14,10.0,East,4.6,-,N/A,,Clear,80,2013-12-11 16:52:00
9:52 AM,62.1,21.9,21,30.13,10.0,East,5.8,-,N/A,,Clear,80,2013-12-11 17:52:00
10:52 AM,69.1,21.0,16,30.12,10.0,SE,3.5,-,N/A,,Clear,140,2013-12-11 18:52:00
11:52 AM,66.9,37.9,34,30.11,10.0,West,6.9,-,N/A,,Clear,260,2013-12-11 19:52:00
12:52 PM,66.9,39.9,37,30.10,10.0,WSW,9.2,-,N/A,,Clear,250,2013-12-11 20:52:00
1:52 PM,64.9,45.0,48,30.09,10.0,West,5.8,-,N/A,,Clear,260,2013-12-11 21:52:00
2:52 PM,63.0,46.9,56,30.10,10.0,WSW,5.8,-,N/A,,Clear,250,2013-12-11 22:52:00
3:52 PM,59.0,50.0,72,30.11,10.0,WSW,4.6,-,N/A,,Clear,240,2013-12-11 23:52:00
4:52 PM,57.9,50.0,75,30.12,8.0,Calm,Calm,-,N/A,,Clear,0,2013-12-12 00:52:00
5:52 PM,51.1,46.0,83,30.13,10.0,Calm,Calm,-,N/A,,Clear,0,2013-12-12 01:52:00
6:52 PM,48.0,44.1,86,30.14,9.0,Calm,Calm,-,N/A,,Clear,0,2013-12-12 02:52:00
7:52 PM,48.0,45.0,89,30.14,10.0,Calm,Calm,-,N/A,,Clear,0,2013-12-12 03:52:00
8:52 PM,48.0,43.0,83,30.16,10.0,Calm,Calm,-,N/A,,Clear,0,2013-12-12 04:52:00
9:52 PM,48.0,42.1,80,30.15,10.0,Calm,Calm,-,N/A,,Clear,0,2013-12-12 05:52:00
10:52 PM,43.0,39.0,86,30.14,10.0,Calm,Calm,-,N/A,,Clear,0,2013-12-12 06:52:00
11:52 PM,41.0,37.0,86,30.15,10.0,Calm,Calm,-,N/A,,Clear,0,2013-12-12 07:52:00